AirNav   Air Wisconsin Airman Trainee
 
 537 users online  

8MD5 Flying H Farm Airport
Libertytown, Maryland, USA

GOING TO LIBERTYTOWN?


FAA INFORMATION EFFECTIVE 31 JANUARY 2019

Location

FAA Identifier: 8MD5
Lat/Long: 39-29-54.0000N / 077-13-18.0000W
39-29.900000N / 077-13.300000W
39.4983333 / -77.2216667
(estimated)
Elevation: 610 ft. / 186 m (estimated)
Variation: 10W (1995)
From city: 2 miles NE of LIBERTYTOWN, MD
Time zone: UTC -5 (UTC -4 during Daylight Saving Time)
Zip code: 21791

Airport Operations

Airport use: Private use. Permission required prior to landing
Activation date: 07/1999
Control tower: no
ARTCC: WASHINGTON CENTER
FSS: LEESBURG FLIGHT SERVICE STATION
Attendance: UNATNDD
Wind indicator: yes
Segmented circle: yes

Airport Communications

UNICOM: 123.075
WX AWOS-3 at FDK (9 nm SW): 124.875 (301-600-1457)
WX AWOS-3 at DMW (12 nm NE): 121.25 (410-876-1281)
WX AWOS-3PT at GAI (20 nm S): 128.275 (301-977-2971)

Nearby radio navigation aids

VOR radial/distance  VOR name  Freq  Var
FDKr062/(8.8)FREDERICK VOR109.0008W
EMIr279/11.3WESTMINSTER VORTAC117.9008W
MRBr084/29.8MARTINSBURG VORTAC112.1007W
HGRr119/(31.7)HAGERSTOWN VOR109.8007W
BALr318/32.6BALTIMORE VORTAC115.1011W
AMLr027/35.7ARMEL VOR/DME113.5008W
DCAr356/39.3WASHINGTON VOR/DME111.0009W

 
NDB name  Hdg/Dist  Freq  Var  ID
ELLICOTT313/24.237111WFND ..-. -. -..
GEORGETOWN001/34.432309WGTN --. - -.

Airport Services

Runway Information

Runway 18/36

Dimensions: 2000 x 50 ft. / 610 x 15 m
Surface: turf
RUNWAY 18  RUNWAY 36
Traffic pattern: leftright
Obstructions: 30 ft. pline, marked, 363 ft. from runwaynone

Airport Ownership and Management from official FAA records

Ownership: Privately-owned
Owner: FRANCIS E HARRISON
9608 B FOUNTAIN SCHOOL RD
UNION BRIDGE, MD 21791
Phone 301-829-0181
Manager: CHRISTIE HARRISON
9608 C FOUNTAIN SCHOOL RD
UNION BRIDGE, MD 21791
Phone 301-639-0747

Airport Operational Statistics

Aircraft based on the field: 6
Single engine airplanes: 1
Ultralights: 5
    

Additional Remarks

FOR CD CTC POTOMAC APCH AT 866-429-5882.

Instrument Procedures

There are no published instrument procedures at 8MD5.

Some nearby airports with instrument procedures:

KFDK - Frederick Municipal Airport (9 nm SW)
2W2 - Clearview Airpark (10 nm E)
KDMW - Carroll County Regional Airport/Jack B Poage Field (12 nm NE)
W50 - Davis Airport (16 nm S)
KGAI - Montgomery County Airpark (20 nm S)
 
Loc | Ops | Rwys | IFR | FBO | Links
Com | Nav | Svcs | Stats | Notes
Area around 8MD5 (Flying H Farm Airport)
 
Road maps at: MapQuest Bing Google
 
Aerial photo
WARNING: Photo may not be current or correct
Aerial photo of 8MD5 (Flying H Farm Airport)
Do you have a better or more recent aerial photo of Flying H Farm Airport that you would like to share? If so, please send us your photo.

 
Sectional chart

 
Airport distance calculator
Flying to Flying H Farm Airport? Find the distance to fly.

From to 8MD5

Sunrise and sunset
Times for 19-Feb-2019
 Local
(UTC-5)
 Zulu
(UTC)
Morning civil twilight06:3011:30
Sunrise06:5711:57
Sunset17:4922:49
Evening civil twilight18:1623:16

Current date and time
Zulu (UTC)  19-Feb-2019 12:10:32
Local (UTC-5)  19-Feb-2019 07:10:32
 
METAR
KFDK 
8nm SW 
191147Z 30006KT 10SM SKC M03/M11 A3062
KDMW 
12nm NE 
191140Z AUTO 26004KT 10SM CLR M04/M13 A3054 RMK AO2
KGAI 
20nm S 
191156Z AUTO 31006KT 10SM CLR M04/M10 A3057 RMK AO2 SLP386 T10441100 11011 21044 53025 FZRANO
TAF
KBWI 
32nm SE 
191132Z 1912/2018 29006KT P6SM SKC FM200200 VRB03KT P6SM OVC150 FM201200 10005KT 4SM -SN OVC025 FM201500 10007KT 2SM -SN OVC008
KIAD 
36nm S 
191132Z 1912/2018 34006KT P6SM SKC FM200000 03004KT P6SM OVC150 FM200800 03004KT P6SM OVC060 FM200900 03004KT P6SM -SN OVC045 FM201100 03004KT 3SM -SN OVC010 FM201200 03004KT 1SM -SN OVC008
KMRB 
36nm W 
191132Z 1912/2012 VRB03KT P6SM SKC FM192300 03004KT P6SM OVC150 FM200800 11004KT P6SM OVC070 FM200900 11004KT P6SM -SN OVC080 FM201100 12005KT 2SM -SN OVC008
KMTN 
39nm E 
191132Z 1912/2012 33003KT P6SM SKC FM200200 VRB03KT P6SM OVC150
KDCA 
40nm S 
191132Z 1912/2018 33011G16KT P6SM SKC FM200000 01004KT P6SM OVC150 FM200800 09004KT P6SM OVC060 FM200900 09004KT P6SM -SN OVC050 FM201100 10005KT 5SM -SN OVC015 FM201200 11005KT 1 1/2SM -SN OVC008
NOTAMs
Click for the latest NOTAMs
NOTAMs are issued by the DoD/FAA and will open in a separate window not controlled by AirNav.

 

 
 

Would you like to see your business listed on this page?

 If your business provides an interesting product or service to pilots, flight crews, aircraft, or users of the Flying H Farm Airport, you should consider listing it here.  To start the listing process, click on the button below
 
Add a business
 

Other Pages about Flying H Farm Airport

Update a link
 
Copyright © AirNav, LLC. All rights reserved. Privacy Policy  Contact